Regional Weather Roundup
Issued by NWS

Home | Current Version | Previous Version | Graphics & Text | Print | Product List | Glossary On
Versions: 1 2 3 4 5 6 7 8 9 10 11 12 13 14 15 16 17 18 19 20 21 22 23 24 25 26 27 28 29 30 31 32 33 34 35 36 37 38 39 40 41 42 43 44 45 46 47 48 49 50
000
ASUS43 KDTX 291410
RWRMI
MICHIGAN HOURLY REGIONAL WEATHER ROUNDUP
NATIONAL WEATHER SERVICE DETROIT/PONTIAC MI
1000 AM EDT MON JUN 29 2015

NOTE: "FAIR" INDICATES FEW OR NO CLOUDS BELOW 12,000 FEET WITH NO
SIGNIFICANT WEATHER AND/OR OBSTRUCTION TO VISIBILITY.

MIZ047>049-052>055-059>063-066>070-074>076-081>083-291500-
SOUTHEAST LOWER MICHIGAN

CITY           SKY/WX    TMP DP  RH WIND       PRES   REMARKS
ADRIAN         CLOUDY    67  60  78 SW12      29.89S
ALMA           SUNNY     71  58  65 CALM      29.87S
ANN ARBOR      MOSUNNY   70  60  70 S5        29.88S
BAD AXE        MOSUNNY   73  54  51 CALM      29.89S
CARO           SUNNY     72  60  64 CALM      29.88S
DETROIT CITY   MOSUNNY   72  58  61 SE6       29.90R
DETROIT        PTSUNNY   72  59  63 S7        29.89S
FLINT          MOSUNNY   75  58  55 S6        29.88S
HILLSDALE      PTSUNNY   66  62  86 S7        29.88S
HOWELL         PTSUNNY   70  58  66 E5        29.88S

CITY           SKY/WX    TMP DP  RH WIND       PRES   REMARKS
JACKSON        PTSUNNY   69  59  70 S7        29.87S
LAMBERTVILLE   PTSUNNY   69  58  68 SW9       29.90R
LANSING        MOSUNNY   70  59  68 CALM      29.87S
LAPEER         FAIR      71  55  58 CALM      29.89S
MASON          PTSUNNY   67  60  78 S3        29.87S
MONROE         MOSUNNY   71  59  65 S10       29.88R
MT. CLEMENS    PTSUNNY   69  60  72 SE3       29.89R
PONTIAC        PTSUNNY   70  56  61 S6        29.88S
PORT HOPE        N/A     68  62  81 E3        29.87R
PORT HURON     PTSUNNY   70  59  68 CALM      29.90S
TRI CITIES     SUNNY     75  54  47 S6        29.87S
MIDLAND        FAIR      74  53  46 CALM      29.86S
TROY           MOSUNNY   73  57  57 S5        29.90F
SAGINAW HB     SUNNY     75  55  50 SE6       29.86S
$$
MIZ043>046-050>051-056>058-064>065-071>073-077>080-291500-
SOUTHWEST LOWER MICHIGAN

CITY           SKY/WX    TMP DP  RH WIND       PRES   REMARKS
BATTLE CREEK   CLOUDY    70  59  68 S6        29.87S
BENTON HARBOR  MOSUNNY   70  61  73 S9        29.83S
BIG RAPIDS     SUNNY     67  55  64 S5        29.86S
COLDWATER      CLOUDY    67  60  77 S6        29.86S
FREMONT        FAIR      69  58  68 SE5       29.84S
HOLLAND        MOSUNNY   71  61  70 S8        29.85R
GRAND RAPIDS   MOSUNNY   71  60  68 S8        29.86R
IONIA          FAIR      68  60  73 CALM      29.86S
KALAMAZOO      CLOUDY    67  59  75 S6        29.86S
LUDINGTON      SUNNY     71  60  69 CALM      29.84R
MARSHALL       CLOUDY    67  60  77 S3        29.87S
MOUNT PLEASANT SUNNY     72  57  59 S3        29.86R
MUSKEGON       PTSUNNY   72  59  63 SE6       29.84S
SOUTH HAVEN    MOSUNNY   69  62  78 S7        29.83S
$$
MIZ016>042-291500-
NORTHERN LOWER MICHIGAN

CITY           SKY/WX    TMP DP  RH WIND       PRES   REMARKS
ALPENA         SUNNY     70  52  52 SW3       29.87S
BEAVER ISLAND  SUNNY     68  47  46 SW5       29.84S
BELLAIRE       SUNNY     69  51  51 S3        29.85S
CADILLAC       SUNNY     71  52  52 CALM      29.86S
CHARLEVOIX     SUNNY     70  51  50 CALM      29.87S
FRANKFORT      SUNNY     73  46  37 CALM      29.83F
GAYLORD        SUNNY     70  47  43 SW7       29.87S
GRAYLING       SUNNY     69  53  55 CALM      29.87S
HARBOR SPRINGS SUNNY     68  52  56 CALM      29.85S
HOUGHTON LAKE  SUNNY     70  51  51 SW6       29.87S
MANISTEE       SUNNY     64  54  68 E3        29.85S
OSCODA         SUNNY     72  52  48 CALM      29.87S
PELLSTON       SUNNY     72  50  45 CALM      29.85S
ROGERS CITY    SUNNY     73  51  46 SW6       29.86S
TRAVERSE CITY  MOSUNNY   72  53  51 CALM      29.83S
$$
MIZ007>008-015-291500-
EASTERN UPPER MICHIGAN

CITY           SKY/WX    TMP DP  RH WIND       PRES   REMARKS
KINROSS        SUNNY     70  57  64 W3        29.83F
MACKINAC ISLAN SUNNY     67  49  51 SW7       29.84S
NEWBERRY       SUNNY     68  60  75 SW5       29.82S
S. S. MARIE    SUNNY     67  54  63 CALM      29.82S
MUNISING         N/A     73  58  59 VRB3      29.79S
$$
MIZ004>006-011>014-085-291500-
CENTRAL UPPER MICHIGAN

CITY           SKY/WX    TMP DP  RH WIND       PRES   REMARKS
MANISTIQUE     SUNNY     62  56  80 S5        29.82S
ESCANABA       SUNNY     70  57  64 S3        29.81S
MENOMINEE      MOSUNNY   72  57  60 SE3       29.81S
SAWYER-GWINN   SUNNY     70  59  68 W6        29.81R
$$
MIZ001>003-009>011-084-291500-
WESTERN UPPER MICHIGAN

CITY           SKY/WX    TMP DP  RH WIND       PRES   REMARKS
IRON MOUNTAIN  PTSUNNY   69  58  67 N3        29.81S
HOUGHTON       MOSUNNY   68  59  73 W8        29.77F
COPPER HARBOR    N/A     62  56  80 CALM      29.76S
IRONWOOD       PTSUNNY   66  63  88 SW7       29.77S
$$

ABBREVIATIONS USED IN REMARKS
   TC - TEMPERATURE IN CELSIUS
  WCI - WIND CHILL INDEX
   HX - HEAT INDEX
  VSB - VISIBILITY



USA.gov is the U.S. government's official web portal to all federal, state and local government web resources and services.